Flag for West Bank Weather past 2 weeks in Nablus, West Bank

Now
90 °F

Sunny.


Feels Like: 90 °F
Forecast: 67 / 89 °F
Wind: 12 mph from Northwest

Location: Ben Gurion International Airport

Current Time: Jul 29, 2015 at 3:11:12 PM

Latest Report: Jul 29, 2015 at 2:20 PM


Visibility: 10 mi

Pressure: 29.71 "Hg (27.99 "Hg at 534m altitude)

Humidity: 41%

Dew point: 63 °F

Location of NablusLocation

Historic Weather in Nablus — Graph

°F

Nablus temperature yesterday

Maximum temperature yesterday: 88 °F (at 11:50 AM)
Minimum temperature yesterday: 75 °F (at 4:20 AM)
Average temperature yesterday: 82 °F

Past Weeks' High & Low Weather Summary

 TemperatureHumidityPressure
High97 °F (Jul 24, 10:50 AM)89% (Jul 18, 12:20 AM)29.80 "Hg (Jul 18, 12:20 AM)
Low72 °F (Jul 24, 5:50 AM)28% (Jul 24, 10:20 AM)29.68 "Hg (Jul 19, 4:20 PM)
Average82 °F66%29.74 "Hg
* Reported Jul 14 1:20 PM — Jul 29 1:50 PM, Nablus, Weather by CustomWeather, © 2015

Note: Actual official high and low records may vary slightly from our data, if they occured in-between our weather recording intervals... More about our weather records

Advertising

Nablus weather history for previous 24 hours

 ConditionsComfort  
Time TempWeatherWind HumidityBarometerVisibility
1:50 PM
Wed, Jul 29
90 °FSunny.10 mph41%29.71 "Hg10 mi
1:20 PM88 °FSunny.12 mph49%29.71 "Hg10 mi
12:50 PM88 °FSunny.14 mph52%29.71 "Hg10 mi
12:20 PM88 °FSunny.13 mph52%29.71 "Hg10 mi
11:50 AM88 °FSunny.12 mph55%29.71 "Hg10 mi
11:20 AM88 °FSunny.8 mph55%29.71 "Hg10 mi
10:20 AM88 °FSunny.2 mph49%29.74 "Hg10 mi
9:50 AM86 °FSunny.1 mph52%29.74 "Hg10 mi
9:20 AM84 °FSunny.2 mph62%29.74 "Hg10 mi
8:50 AM82 °FSunny.2 mph66%29.74 "Hg10 mi
8:20 AM81 °FSunny.1 mph62%29.74 "Hg10 mi
7:50 AM79 °FSunny.2 mph61%29.74 "Hg10 mi
7:20 AM75 °FSunny.3 mph61%29.74 "Hg10 mi
6:50 AM73 °FPassing clouds.6 mph61%29.74 "HgN/A
6:20 AM73 °FPassing clouds.3 mph61%29.71 "HgN/A
5:50 AM73 °FPassing clouds.5 mph65%29.71 "HgN/A
5:20 AM73 °FClear.3 mph65%29.71 "Hg10 mi
4:50 AM73 °FClear.3 mph65%29.71 "Hg10 mi
4:20 AM73 °FClear.5 mph74%29.71 "Hg10 mi
3:50 AM73 °FClear.2 mph83%29.71 "Hg10 mi
3:20 AM73 °FClear.2 mph83%29.71 "Hg10 mi
2:50 AM75 °FClear.2 mph78%29.71 "Hg10 mi
2:20 AM75 °FClear.5 mph83%29.71 "Hg10 mi
1:50 AM77 °FClear.3 mph79%29.71 "Hg10 mi
12:20 AM79 °FClear.3 mph79%29.71 "Hg10 mi
11:50 PM
Tue, Jul 28
79 °FClear.5 mph79%29.74 "Hg10 mi
11:20 PM79 °FClear.5 mph74%29.74 "Hg10 mi
10:50 PM79 °FClear.5 mph74%29.74 "Hg10 mi
10:20 PM81 °FClear.3 mph70%29.74 "Hg10 mi
9:50 PM81 °FClear.5 mph70%29.71 "Hg10 mi
9:20 PM81 °FClear.6 mph70%29.71 "Hg10 mi
8:50 PM81 °FClear.5 mph70%29.71 "Hg10 mi
8:20 PM82 °FSunny.5 mph66%29.71 "Hg10 mi
7:50 PM82 °FSunny.6 mph66%29.71 "Hg10 mi
7:20 PM82 °FSunny.8 mph66%29.71 "Hg10 mi
6:50 PM84 °FSunny.9 mph62%29.68 "Hg10 mi
6:20 PM86 °FPassing clouds.8 mph59%29.68 "HgN/A
5:50 PM86 °FPassing clouds.9 mph55%29.68 "HgN/A
5:20 PM86 °FPassing clouds.10 mph55%29.68 "HgN/A
4:50 PM86 °FPassing clouds.12 mph59%29.68 "HgN/A
4:20 PM88 °FPassing clouds.10 mph55%29.68 "HgN/A
3:50 PM86 °FPassing clouds.13 mph59%29.68 "HgN/A
3:20 PM86 °FSunny.10 mph59%29.68 "Hg10 mi
Weather by CustomWeather, © 2015

See weather overviewHow to use our weather pages